Regional Weather Roundup
Issued by NWS

Home | Current Version | Previous Version | Graphics & Text | Print | Product List | Glossary On
Versions: 1 2 3 4 5 6 7 8 9 10 11 12 13 14 15 16 17 18 19 20 21 22 23 24 25 26 27 28 29 30 31 32 33 34 35 36 37 38 39 40 41 42 43 44 45 46 47 48 49 50
000
ASUS45 KABQ 271410
RWRNM
WEATHER ROUNDUP FOR NEW MEXICO
NATIONAL WEATHER SERVICE ALBUQUERQUE NM
800 AM MDT MON APR 27 2015

NOTE: "FAIR" MEANS FEW OR NO CLOUDS BELOW 12,000 FEET AGL WITH NO
       SIGNIFICANT WEATHER OR OBSTRUCTIONS TO VISION.

      THIS PRODUCT IS RELEASED AS TWO VERSIONS.  ONE VERSION NEAR
      THE TOP OF THE HOUR CONTAINING PRELIMINARY DATA FROM ALBUQUERQUE
      AND OTHER STATIONS.  A FINAL VERSION WITH ADDITIONAL DATA IS
      ISSUED ABOUT 10 MINUTES AFTER THE HOUR.

NMZ501-503-504-510>518-271500-
NORTHWEST PLATEAU/NORTHCENTRAL MOUNTAINS

CITY           SKY/WX    TMP DP  RH WIND       PRES   REMARKS
FARMINGTON     SUNNY     42  38  85 CALM      30.02R
LOS ALAMOS     PTSUNNY   40  32  73 N13G24    30.04R WCI  33
SANTA FE       CLOUDY    41  36  82 NE8       30.02R
TAOS           PTSUNNY   39  30  70 N6        30.04R WCI  35
ANGEL FIRE     LGT SNOW  32  29  89 NE8       30.01  WCI  25

$$
NMZ402-403-502-505>509-271500-
WESTCENTRAL MOUNTAINS/SOUTHWEST MOUNTAINS

CITY           SKY/WX    TMP DP  RH WIND       PRES   REMARKS
GALLUP         CLOUDY    43  38  82 N13       30.04R
GRANTS         CLOUDY    42  40  93 SW3       30.04R
SILVER CITY      N/A     45  37  76 NW13      29.97R

$$
NMZ407-409-411-412-271500-
SOUTHERN DESERTS

CITY           SKY/WX    TMP DP  RH WIND       PRES   REMARKS
LORDSBURG      FAIR      43  37  81 W5        29.95R
DEMING         MOSUNNY   46  39  76 CALM      29.94R
LAS CRUCES     SUNNY     51  40  66 N14       29.93R
ALAMOGORDO     MOSUNNY   50  41  71 N12       29.91R
T OR C         PTSUNNY   50  42  74 NE12G17   29.96R

$$
NMZ519>523-271500-
CENTRAL VALLEYS/CENTRAL HIGHLANDS

CITY           SKY/WX    TMP DP  RH WIND       PRES   REMARKS
ALBUQUERQUE    PTSUNNY   45  39  79 W5        30.01R
DOUBLE EAGLE   PTSUNNY   43  37  81 N7        30.03R
MORIARTY ARPT  CLOUDY    41  35  80 NE13      30.03R
CLINES CORNERS MIX PCPN  34  33  96 NE15      29.99R WCI  24
BELEN          FAIR      44  40  87 N5        30.01R
SOCORRO        DRIZZLE   45  42  91 N7        30.00R

$$
NMZ524>526-539-540-271500-
SOUTHCENTRAL MOUNTAINS

CITY           SKY/WX    TMP DP  RH WIND       PRES   REMARKS
RUIDOSO        LGT RAIN  37  36  93 N8        29.99R WCI  31

$$
NMZ527>531-271500-
NORTHEAST HIGHLANDS/NORTHEAST PLAINS

CITY           SKY/WX    TMP DP  RH WIND       PRES   REMARKS
LAS VEGAS      LGT RAIN  34  32  92 N15       30.02R WCI  24
RATON          CLOUDY    41  34  76 NE20G26   30.01R
CLAYTON        LGT RAIN  41  38  89 N25G33    29.99R

$$
NMZ532>537-271500-
EASTCENTRAL PLAINS

CITY           SKY/WX    TMP DP  RH WIND       PRES   REMARKS
TUCUMCARI      RAIN      41  37  86 N18G32    29.97R FOG
CANNON AFB     NOT AVBL
CLOVIS AIRPORT CLOUDY    43  39  87 N18       29.90S

$$
NMZ028-029-538-271500-
SOUTHEAST PLAINS

CITY           SKY/WX    TMP DP  RH WIND       PRES   REMARKS
ROSWELL        CLOUDY    53  43  68 N16       29.90R
ARTESIA        CLOUDY    50  46  87 N12G17    29.90R
CARLSBAD       MOSUNNY   56  41  57 N10       29.86R
HOBBS          MOSUNNY   54  50  87 N9        29.85R


$$



USA.gov is the U.S. government's official web portal to all federal, state and local government web resources and services.